[[{"header":{"parameterUnit":"m.s-1","parameterCategory":1,"la1":30.2991,"la2":30.254,"lo1":-89.0895,"lo2":-89.0444,"dy":0.0017,"dx":0.0017,"nx":28,"ny":28,"refTime":"2024-07-14T03:00:00:Z","depth":0,"parameterNumber":2,"parameterNumberName":"U-component_of_WINDS"},"data":[0,0,0,0,0,0,0,0,0,0,0,0,0,0,0,0,0,0,0,0,0,0,0,0,0,0,0,0,0,0,0,0,0,0,0,0,0,0,0,0,0,0,0,0,0,0,0,0,0,0,0,0,0,0,0,0,0,0,4.2324,4.2325,0,4.2376,4.2376,4.2377,4.2272,4.2269,4.2265,4.2262,4.2316,4.232,4.2325,0,0,0,0,0,0,0,0,0,0,0,0,0,4.2134,4.2138,4.2324,4.2325,4.2325,4.2375,4.2376,4.2377,4.2273,4.2269,4.2264,4.226,4.2314,4.232,4.2325,0,0,0,0,0,0,0,0,0,0,0,0,0,4.2204,4.2139,4.2324,4.2279,4.2276,4.2375,4.2376,4.2377,4.2274,4.2268,4.2263,4.2258,4.2313,4.2319,4.2326,4.2472,0,0,4.2347,4.235,0,0,0,0,0,0,0,0,4.22,4.2211,4.2285,4.2283,4.2279,4.2312,4.2329,4.2409,4.2275,4.2275,4.2262,4.2256,4.2319,4.2325,4.2346,4.2474,4.2476,4.2348,4.2352,4.2355,4.2357,0,0,0,0,0,0,0,4.2196,4.2209,4.2344,4.2286,4.2283,4.2256,4.2261,4.2343,4.2325,4.2274,4.2267,4.2274,4.2316,4.2339,4.2346,4.2477,4.2348,4.2354,4.2358,4.2361,4.2723,4.2728,0,0,0,0,0,0,4.2196,4.2205,4.2343,4.2346,4.2226,4.2264,4.2269,4.2307,4.2324,4.2321,4.2278,4.2269,4.233,4.2338,4.2348,4.2516,4.2355,4.2362,4.2366,4.2718,4.2724,4.273,0,0,0,0,0,0,4.2193,4.221,4.2341,4.2274,4.2288,4.2273,4.2316,4.231,4.2333,4.2327,4.2323,4.2306,4.2326,4.2338,4.2441,4.2517,4.2365,4.2371,4.2711,4.272,4.2727,4.2856,0,0,0,0,0,0,4.2188,4.2209,4.2265,4.2276,4.2292,4.2433,4.2321,4.2315,4.2346,4.2334,4.2352,4.235,4.2323,4.2431,4.2448,4.2524,4.2376,4.2704,4.2715,4.2725,4.2845,4.2868,4.2887,0,0,0,0,0,4.2181,4.23,4.2268,4.2285,4.2361,4.2438,4.2447,4.2414,4.2352,4.2407,4.2403,4.2349,4.2506,4.2442,4.246,4.2539,4.2699,4.2712,4.2724,4.2836,4.2864,4.2887,0,0,0,0,0,0,4.23,4.2301,4.2265,4.2391,4.2415,4.242,4.2489,4.2446,4.2488,4.2475,4.2433,4.2438,4.2548,4.2554,4.2483,4.2679,4.2592,4.2609,4.2671,4.2697,4.2718,4.2713,4.2382,0,0,0,0,0,4.234,4.2403,4.24,4.2511,4.2525,4.2505,4.2537,4.251,4.2533,4.2543,4.2546,4.257,4.2624,4.2662,4.2712,4.2846,4.2847,4.2909,4.293,4.2948,4.2962,4.303,4.3057,4.2771,4.2771,4.277,0,0,4.2425,4.2433,4.2475,4.2535,4.255,4.2615,4.2515,4.2588,4.2635,4.2554,4.265,4.2653,4.2678,4.2796,4.2848,4.2804,4.3041,4.2963,4.2977,4.2982,4.3045,4.3072,4.3096,4.2779,4.2778,4.2776,0,0,4.2612,4.2626,4.2718,4.2735,4.2758,4.2744,4.2766,4.2778,4.2776,4.2872,4.2811,4.2866,4.2962,4.2981,4.3003,4.3194,4.3145,4.3212,4.3322,4.3389,4.3411,4.3431,4.3496,4.352,4.3227,4.3227,4.3227,0,4.2714,4.2809,4.2771,4.2847,4.2874,4.2803,4.2895,4.2913,4.2953,4.2973,4.2923,4.3039,4.3051,4.3171,4.3217,4.3239,4.3261,4.3209,4.3411,4.343,4.3448,4.351,4.3535,4.3235,4.3234,4.3233,4.3232,0,4.2932,4.2998,4.307,4.3108,4.3143,4.3227,4.3201,4.3241,4.321,4.3201,4.3297,4.3309,4.3358,4.3385,4.3357,4.35,4.3472,4.3418,4.3329,4.3484,4.3541,4.3564,4.3246,4.3243,4.3241,4.3239,0,0,4.3195,4.3209,4.3236,4.3251,4.3271,4.3321,4.3401,4.3448,4.3482,4.3512,4.3576,4.3658,4.3606,4.3632,4.3604,4.3663,4.381,4.3601,4.3601,4.3637,4.3966,4.4005,4.4033,4.3778,4.3783,4.3786,4.3962,0,4.3377,4.3514,4.3481,4.3616,4.3675,4.3608,4.3677,4.3696,4.3689,4.3738,4.373,4.3787,4.3717,4.3731,4.3787,4.378,4.3875,4.3768,4.3836,4.3839,4.383,4.4063,4.4105,4.4271,4.3985,4.3989,4.3992,0,4.3609,4.3645,4.3785,4.3792,4.3816,4.3879,4.3918,4.3966,4.3986,4.3976,4.4004,4.3964,4.4041,4.3953,4.4058,4.3985,4.4012,4.4013,4.4018,4.4022,4.3923,4.407,4.4324,4.4348,4.4027,4.4024,4.4022,0,4.3783,4.3867,4.3961,4.3976,4.3988,4.4033,4.404,4.4055,4.4084,4.4119,4.4137,4.4181,4.4204,4.4238,4.421,4.4149,4.4319,4.4229,4.4312,4.4312,4.4349,4.4347,4.4608,4.437,4.437,4.437,4.4369,0,4.3989,4.4077,4.4038,4.4096,4.4192,4.4153,4.4249,4.4248,4.4261,4.4316,4.4261,4.4315,4.4276,4.4325,4.4305,4.4393,4.4405,4.4398,4.4391,4.4401,4.4402,4.4417,4.4403,4.4376,4.4375,4.4373,4.4372,0,4.4199,4.4177,4.4274,4.4277,4.4279,4.4349,4.4351,4.4404,4.4392,4.4462,4.4477,4.4459,4.4514,4.449,4.4549,4.4534,4.4647,4.4626,4.464,4.4633,4.4716,4.4707,4.4993,4.5027,4.4771,4.4773,4.4775,0,4.4331,4.4396,4.4405,4.4437,4.4447,4.4502,4.453,4.4494,4.4527,4.4553,4.4602,4.4652,4.469,4.4781,4.4773,4.4816,4.4794,4.4892,4.4801,4.4808,4.4792,4.4788,4.4793,4.4909,4.4912,4.4915,4.4917,0,4.4566,4.4551,4.4595,4.4634,4.467,4.47,4.4725,4.4755,4.472,4.4759,4.4814,4.4843,4.4902,4.4951,4.4989,4.4996,4.495,4.4946,4.4966,4.4977,4.4981,4.4977,4.4686,4.4939,4.4937,4.4935,4.4934,4.4933,4.4738,4.4792,4.4806,4.4856,4.487,4.4894,4.4943,4.4936,4.4981,4.5025,4.5001,4.5065,4.508,4.5126,4.5138,4.5187,4.5148,4.518,4.5187,4.5194,4.5204,4.4975,4.5194,4.5193,4.5193,4.5192,4.5192,0,4.4968,4.4973,4.5019,4.5054,4.5093,4.5046,4.5071,4.5106,4.5163,4.5181,4.5218,4.528,4.5327,4.5322,4.5365,4.5405,4.5384,4.5417,4.5412,4.5414,4.5237,4.5214,4.5432,4.5432,4.5432,4.5432,4.5432,4.5432,4.5092,4.5179,4.5166,4.5259,4.5263,4.5324,4.5341,4.5363,4.5376,4.5447,4.5486,4.5482,4.549,4.5532,4.5573,4.557,4.5587,4.5627,4.5616,4.5451,4.5427,4.5404,4.5381,4.5632,4.5632,4.5788,4.5789,4.5791]},{"header":{"parameterUnit":"m.s-1","parameterCategory":1,"la1":30.2991,"la2":30.254,"lo1":-89.0895,"lo2":-89.0444,"dy":0.0017,"dx":0.0017,"nx":28,"ny":28,"refTime":"2024-07-14T03:00:00:Z","depth":0,"parameterNumber":3,"parameterNumberName":"V-component_of_WINDS"},"data":[0,0,0,0,0,0,0,0,0,0,0,0,0,0,0,0,0,0,0,0,0,0,0,0,0,0,0,0,0,0,0,0,0,0,0,0,0,0,0,0,0,0,0,0,0,0,0,0,0,0,0,0,0,0,0,0,0,0,1.868,1.868,0,1.8701,1.8701,1.8701,1.869,1.869,1.8689,1.8689,1.871,1.8711,1.8712,0,0,0,0,0,0,0,0,0,0,0,0,0,1.863,1.8631,1.868,1.868,1.8681,1.8701,1.8701,1.8701,1.869,1.869,1.8689,1.8688,1.8709,1.871,1.8712,0,0,0,0,0,0,0,0,0,0,0,0,0,1.8651,1.8631,1.868,1.8678,1.8678,1.8701,1.8701,1.8701,1.869,1.869,1.8689,1.8688,1.8709,1.871,1.8712,1.8739,0,0,1.8717,1.8718,0,0,0,0,0,0,0,0,1.865,1.8653,1.8678,1.8678,1.8678,1.8692,1.8691,1.8714,1.8691,1.8686,1.8689,1.8688,1.8704,1.8706,1.8712,1.874,1.874,1.8717,1.8718,1.8719,1.8719,0,0,0,0,0,0,0,1.8649,1.8652,1.8688,1.8678,1.8678,1.8675,1.8677,1.8695,1.8699,1.8686,1.8685,1.8688,1.8704,1.871,1.8712,1.8741,1.8717,1.8718,1.8719,1.872,1.8789,1.879,0,0,0,0,0,0,1.8647,1.8651,1.8688,1.8689,1.8662,1.8677,1.8679,1.8688,1.8699,1.87,1.8688,1.8687,1.8708,1.8711,1.8713,1.8744,1.8719,1.872,1.8721,1.8788,1.8789,1.879,0,0,0,0,0,0,1.8646,1.8651,1.8687,1.867,1.8674,1.8678,1.8689,1.8689,1.8695,1.8701,1.8702,1.8694,1.8708,1.8711,1.8732,1.8744,1.8721,1.8722,1.8787,1.8789,1.879,1.8806,0,0,0,0,0,0,1.8645,1.865,1.8661,1.867,1.8675,1.8706,1.869,1.869,1.8698,1.8697,1.8707,1.8707,1.8707,1.8729,1.8733,1.8746,1.8724,1.8786,1.8788,1.8789,1.8804,1.8807,1.881,0,0,0,0,0,1.8643,1.8665,1.8662,1.8666,1.8688,1.8706,1.8709,1.8708,1.8699,1.8709,1.8713,1.8707,1.8742,1.8732,1.8736,1.8749,1.8785,1.8787,1.8789,1.8803,1.8807,1.881,0,0,0,0,0,0,1.8658,1.8666,1.8663,1.8688,1.8696,1.8704,1.8717,1.8713,1.8724,1.8723,1.8721,1.8723,1.8745,1.8749,1.8737,1.8775,1.8762,1.8765,1.8771,1.8775,1.8778,1.8776,1.8725,0,0,0,0,0,1.8664,1.8678,1.8685,1.8706,1.8711,1.8713,1.8721,1.872,1.8729,1.8732,1.8737,1.8746,1.8758,1.8767,1.8779,1.8805,1.8806,1.8816,1.8819,1.8821,1.8824,1.8836,1.884,1.8797,1.8797,1.8797,0,0,1.8677,1.8683,1.8692,1.8709,1.8716,1.873,1.8717,1.8732,1.8742,1.8735,1.8754,1.8758,1.8768,1.879,1.8801,1.8795,1.8836,1.8824,1.8826,1.8827,1.8838,1.8842,1.8846,1.8798,1.8798,1.8797,0,0,1.8707,1.8714,1.8732,1.8738,1.8748,1.8749,1.8754,1.8762,1.8764,1.8784,1.8778,1.879,1.8812,1.8819,1.8825,1.8856,1.885,1.886,1.8876,1.8888,1.8891,1.8894,1.8904,1.8907,1.8862,1.8863,1.8863,0,1.8722,1.8743,1.8742,1.8758,1.8765,1.8758,1.8775,1.8782,1.8795,1.88,1.8793,1.882,1.8826,1.8849,1.8857,1.8862,1.8866,1.8859,1.8891,1.8894,1.8896,1.8906,1.891,1.8864,1.8863,1.8863,1.8863,0,1.876,1.8775,1.8788,1.88,1.8809,1.8826,1.8826,1.8835,1.8833,1.8835,1.8854,1.8861,1.8873,1.8879,1.8877,1.8902,1.8898,1.8891,1.8878,1.8901,1.891,1.8914,1.8865,1.8865,1.8864,1.8864,0,0,1.8801,1.8811,1.8816,1.882,1.883,1.8841,1.8857,1.8869,1.8876,1.8885,1.8898,1.8916,1.8909,1.8916,1.8915,1.8926,1.8948,1.8917,1.8917,1.8922,1.8974,1.8978,1.8982,1.8945,1.8945,1.8946,1.8973,0,1.8831,1.8858,1.8857,1.8883,1.8895,1.8888,1.8902,1.8909,1.891,1.8921,1.8923,1.8936,1.8927,1.8931,1.8941,1.8943,1.8958,1.8941,1.8955,1.8956,1.8952,1.8987,1.8992,1.9017,1.8976,1.8977,1.8977,0,1.887,1.8879,1.8906,1.8912,1.8917,1.8929,1.8939,1.895,1.8957,1.8958,1.8965,1.8961,1.8976,1.8964,1.8984,1.8972,1.8978,1.898,1.8981,1.8982,1.8967,1.8988,1.9025,1.9029,1.8983,1.8982,1.8982,0,1.8895,1.8914,1.8932,1.8937,1.8945,1.8953,1.8957,1.8963,1.897,1.8979,1.8983,1.8994,1.8999,1.9007,1.9007,1.8998,1.9027,1.9014,1.9027,1.9027,1.9033,1.9032,1.9071,1.9038,1.9038,1.9038,1.9038,0,1.8928,1.8944,1.8943,1.8955,1.8972,1.897,1.8988,1.899,1.8996,1.9007,1.9001,1.9012,1.901,1.9021,1.902,1.9036,1.9039,1.9039,1.9039,1.9039,1.9039,1.9042,1.904,1.9039,1.9039,1.9038,1.9038,0,1.8959,1.8959,1.8978,1.8984,1.8985,1.8998,1.9002,1.9012,1.9013,1.9027,1.903,1.9032,1.9043,1.9043,1.9057,1.9056,1.9076,1.9074,1.9073,1.9072,1.9084,1.9083,1.9125,1.913,1.9095,1.9096,1.9096,0,1.898,1.8992,1.8998,1.9005,1.9009,1.902,1.9026,1.9025,1.9032,1.904,1.9049,1.906,1.9068,1.9087,1.9089,1.9099,1.9096,1.9111,1.9098,1.9097,1.9095,1.9094,1.9095,1.9113,1.9113,1.9114,1.9114,0,1.9016,1.9015,1.9024,1.9034,1.9042,1.9049,1.9056,1.9062,1.9061,1.9069,1.908,1.9087,1.91,1.911,1.9119,1.9123,1.9118,1.9118,1.9121,1.9121,1.912,1.9119,1.9079,1.9117,1.9117,1.9116,1.9116,1.9116,1.9041,1.9051,1.9056,1.9067,1.9072,1.9078,1.9087,1.9089,1.9098,1.9108,1.9107,1.9119,1.9125,1.9137,1.9141,1.915,1.9145,1.915,1.9151,1.9152,1.9153,1.9119,1.9152,1.9152,1.9152,1.9152,1.9152,0,1.9076,1.9079,1.9088,1.9098,1.9106,1.91,1.9107,1.9114,1.9125,1.913,1.9139,1.9151,1.9161,1.9163,1.9173,1.918,1.9177,1.9182,1.9181,1.9181,1.9157,1.9153,1.9183,1.9183,1.9183,1.9183,1.9183,1.9183,1.9095,1.911,1.911,1.9128,1.9131,1.9142,1.9147,1.9152,1.9156,1.917,1.9178,1.9179,1.9184,1.9193,1.9201,1.9202,1.9205,1.921,1.921,1.9187,1.9183,1.918,1.9176,1.9211,1.9211,1.9233,1.9233,1.9233]}]]